Temp
-10 -10 -10 -10 -10 -10 -10 -10 -10 -10 -10 -9 -10 -10 -9 -9 -9 -9 -10 -9 -9 -9 -9 -9 -10 -10 -10 -10 -11 -11 -11 -11 -11 -11 -12 -12 -12 -12 -12 -12 -12 -12 -12 -12
-10 -10 -10 -11 -10 -11 -10 -10 -10 -10 -10 -10 -10 -9 -9 -10 -9 -10 -10 -10 -10 -10 -10 -10 -10 -10 -11 -11 -11 -12 -12 -12 -12 -12 -12 -12 -12 -12 -13 -13 -13 -13 -13 -13
-10 -11 -11 -10 -11 -11 -11 -11 -11 -11 -10 -10 -10 -9 -10 -10 -10 -10 -10 -10 -10 -10 -10 -10 -11 -11 -11 -11 -12 -12 -12 -12 -12 -12 -12 -12 -12 -12 -13 -13 -13 -13 -13 -14
-11 -11 -11 -11 -11 -11 -11 -11 -11 -11 -11 -10 -10 -10 -11 -9 -10 -10 -10 -10 -10 -10 -11 -11 -11 -11 -12 -12 -12 -12 -12 -12 -13 -13 -13 -12 -12 -12 -12 -12 -13 -13 -13 -13
-11 -11 -11 -11 -12 -12 -12 -12 -12 -11 -11 -11 -11 -10 -10 -11 -9 -10 -10 -11 -11 -11 -11 -11 -11 -12 -12 -12 -12 -13 -13 -13 -13 -13 -13 -13 -13 -12 -12 -12 -12 -12 -12 -13
-12 -12 -12 -11 -12 -12 -13 -12 -12 -12 -11 -10 -10 -11 -11 -12 -11 -10 -11 -11 -12 -12 -12 -12 -12 -12 -12 -13 -13 -13 -13 -13 -13 -13 -13 -13 -13 -13 -13 -13 -13 -13 -13 -14
-12 -12 -12 -12 -12 -12 -12 -12 -12 -12 -11 -10 -11 -11 -11 -11 -11 -10 -12 -12 -12 -12 -12 -12 -13 -13 -13 -13 -13 -13 -13 -13 -13 -14 -14 -14 -14 -14 -14 -15 -14 -15 -15 -15
-13 -13 -13 -12 -12 -12 -12 -12 -13 -13 -13 -12 -13 -10 -10 -11 -11 -12 -12 -12 -12 -12 -13 -13 -13 -13 -13 -13 -13 -13 -13 -13 -14 -14 -14 -15 -15 -15 -15 -15 -15 -15 -16 -16
-13 -13 -14 -12 -12 -13 -12 -12 -13 -13 -12 -12 -11 -10 -10 -11 -11 -12 -12 -13 -13 -13 -13 -13 -14 -13 -13 -13 -13 -13 -14 -14 -14 -15 -15 -16 -15 -15 -16 -16 -16 -17 -17 -17
-14 -14 -13 -12 -12 -13 -13 -12 -13 -13 -12 -12 -11 -11 -11 -10 -11 -12 -13 -13 -13 -13 -14 -14 -14 -14 -14 -14 -14 -14 -14 -14 -15 -15 -16 -16 -16 -16 -17 -17 -17 -17 -17 -17
-14 -13 -13 -13 -12 -12 -13 -12 -12 -13 -12 -12 -11 -11 -12 -11 -11 -12 -13 -13 -13 -14 -14 -14 -14 -14 -14 -14 -14 -15 -15 -15 -15 -15 -16 -17 -17 -17 -17 -17 -17 -17 -17 -18
-13 -13 -14 -13 -13 -13 -13 -13 -13 -13 -12 -12 -13 -11 -12 -12 -12 -13 -13 -13 -13 -14 -14 -14 -15 -15 -15 -15 -15 -15 -15 -15 -15 -16 -17 -17 -17 -17 -17 -18 -18 -18 -18 -18
-14 -13 -14 -13 -13 -13 -13 -13 -13 -13 -13 -12 -13 -11 -12 -12 -13 -13 -14 -14 -14 -15 -14 -15 -15 -15 -15 -15 -15 -15 -15 -15 -16 -16 -17 -17 -18 -18 -18 -18 -18 -18 -19 -19
-14 -14 -13 -13 -13 -14 -14 -14 -14 -14 -14 -13 -12 -13 -13 -13 -14 -14 -14 -14 -14 -14 -15 -15 -16 -15 -15 -15 -15 -16 -16 -16 -16 -17 -17 -17 -18 -18 -18 -19 -19 -19 -19 -21
-14 -14 -14 -15 -16 -15 -15 -15 -15 -15 -14 -14 -13 -14 -13 -15 -13 -14 -14 -14 -15 -16 -16 -16 -16 -15 -15 -16 -16 -16 -16 -17 -17 -17 -18 -18 -18 -19 -19 -19 -19 -20 -21 -21
-14 -15 -15 -15 -16 -16 -16 -15 -15 -15 -15 -15 -14 -13 -14 -15 -16 -16 -14 -15 -16 -16 -16 -16 -16 -15 -16 -17 -17 -17 -17 -17 -18 -18 -18 -19 -19 -19 -19 -19 -20 -21 -22 -22
-15 -15 -16 -16 -16 -17 -15 -14 -16 -15 -15 -15 -15 -14 -15 -16 -16 -17 -15 -16 -16 -16 -16 -16 -17 -16 -17 -17 -17 -17 -17 -18 -18 -19 -19 -19 -19 -20 -20 -21 -21 -22 -22 -23
-16 -16 -16 -16 -16 -16 -14 -15 -16 -16 -15 -15 -15 -15 -15 -16 -16 -17 -17 -16 -16 -17 -17 -17 -17 -18 -18 -18 -18 -18 -18 -19 -20 -20 -20 -20 -20 -21 -21 -21 -22 -23 -23 -23
-17 -17 -17 -17 -16 -16 -15 -15 -16 -16 -16 -16 -16 -16 -16 -16 -17 -16 -17 -17 -17 -17 -17 -17 -19 -18 -18 -18 -18 -18 -19 -20 -21 -21 -21 -21 -21 -22 -22 -23 -23 -23 -24 -24
-17 -18 -17 -17 -18 -17 -15 -17 -17 -17 -16 -16 -17 -17 -17 -17 -17 -17 -17 -17 -17 -17 -18 -18 -19 -18 -19 -19 -19 -19 -20 -21 -21 -21 -21 -21 -22 -23 -23 -23 -24 -24 -25 -25
-18 -18 -18 -18 -19 -18 -17 -18 -18 -17 -17 -17 -17 -17 -17 -18 -18 -17 -17 -17 -18 -19 -19 -19 -19 -19 -19 -19 -19 -20 -21 -21 -21 -21 -21 -22 -23 -23 -23 -24 -25 -25 -25 -25
-18 -18 -18 -18 -19 -18 -18 -18 -17 -18 -18 -18 -18 -18 -18 -18 -17 -18 -18 -18 -19 -19 -19 -19 -19 -20 -19 -20 -20 -20 -21 -21 -21 -22 -22 -23 -23 -24 -24 -25 -25 -25 -25 -26
-18 -18 -19 -19 -18 -18 -18 -18 -18 -18 -19 -18 -18 -17 -17 -17 -17 -18 -19 -19 -19 -19 -19 -20 -20 -20 -20 -20 -21 -21 -22 -22 -23 -23 -24 -24 -24 -24 -25 -25 -25 -26 -26 -26
-19 -18 -19 -19 -19 -19 -19 -19 -19 -19 -18 -18 -19 -19 -19 -19 -19 -19 -19 -19 -19 -20 -20 -20 -20 -21 -21 -21 -21 -22 -22 -24 -24 -24 -24 -24 -25 -25 -25 -25 -26 -26 -26 -26
-19 -19 -19 -19 -19 -19 -19 -19 -19 -19 -19 -19 -19 -19 -20 -20 -19 -19 -19 -20 -20 -20 -20 -21 -21 -21 -22 -23 -23 -24 -23 -24 -25 -25 -25 -25 -25 -25 -25 -26 -26 -26 -26 -26
-20 -19 -19 -20 -19 -19 -20 -19 -20 -20 -20 -20 -20 -20 -20 -20 -19 -20 -20 -20 -21 -21 -21 -21 -22 -23 -24 -24 -24 -25 -25 -25 -25 -26 -26 -26 -25 -25 -26 -26 -26 -26 -26 -26
Height
5820 5822 5827 5833 5832 5834 5835 5838 5837 5841 5839 5833 5838 5838 5837 5833 5832 5831 5831 5829 5828 5826 5826 5825 5824 5822 5821 5820 5820 5819 5816 5815 5815 5813 5812 5810 5807 5804 5802 5800 5796 5793 5790 5788
5811 5815 5822 5821 5823 5827 5828 5829 5831 5831 5830 5826 5829 5827 5828 5823 5824 5825 5823 5822 5821 5820 5819 5818 5817 5816 5816 5815 5815 5814 5812 5810 5809 5809 5807 5804 5801 5797 5795 5792 5791 5788 5786 5784
5802 5808 5808 5811 5815 5817 5820 5820 5822 5821 5818 5819 5820 5816 5817 5813 5817 5816 5815 5814 5813 5812 5812 5812 5811 5811 5811 5810 5809 5808 5807 5805 5803 5802 5801 5799 5795 5792 5788 5785 5782 5780 5777 5774
5790 5794 5799 5803 5806 5808 5810 5811 5811 5813 5812 5813 5809 5810 5806 5805 5810 5809 5808 5807 5806 5806 5805 5805 5804 5804 5804 5803 5803 5802 5801 5799 5797 5796 5794 5792 5789 5786 5782 5777 5773 5769 5767 5765
5783 5787 5787 5792 5797 5798 5802 5799 5802 5803 5804 5803 5802 5798 5806 5798 5795 5802 5801 5800 5800 5799 5798 5798 5797 5797 5796 5796 5796 5796 5794 5793 5791 5788 5786 5783 5780 5778 5775 5772 5768 5763 5758 5754
5770 5770 5775 5781 5785 5789 5789 5793 5793 5794 5794 5790 5795 5796 5794 5793 5789 5793 5793 5793 5793 5792 5792 5791 5791 5790 5789 5789 5788 5788 5788 5786 5784 5781 5777 5774 5771 5768 5765 5762 5758 5755 5750 5746
5759 5760 5767 5771 5773 5779 5779 5784 5785 5785 5782 5784 5788 5784 5788 5786 5783 5785 5785 5786 5786 5786 5785 5784 5783 5782 5782 5781 5781 5782 5780 5778 5774 5771 5769 5765 5761 5758 5754 5751 5748 5745 5742 5739
5743 5749 5749 5758 5766 5768 5771 5772 5775 5773 5775 5776 5776 5773 5779 5778 5778 5778 5778 5779 5779 5779 5777 5776 5775 5774 5774 5773 5773 5771 5770 5769 5765 5763 5760 5756 5752 5749 5745 5741 5738 5734 5731 5730
5731 5736 5740 5745 5754 5759 5758 5757 5765 5767 5764 5764 5769 5765 5769 5771 5768 5770 5770 5770 5770 5769 5768 5768 5766 5766 5765 5764 5764 5763 5760 5759 5756 5753 5749 5746 5742 5738 5734 5731 5728 5726 5723 5720
5723 5724 5726 5732 5739 5743 5744 5748 5752 5753 5754 5756 5760 5764 5763 5756 5759 5763 5763 5762 5762 5761 5760 5759 5758 5758 5757 5756 5754 5752 5749 5747 5745 5741 5737 5734 5730 5727 5723 5721 5718 5715 5712 5708
5711 5716 5715 5720 5725 5731 5736 5735 5741 5745 5745 5749 5753 5756 5751 5747 5751 5754 5754 5754 5753 5752 5750 5748 5749 5749 5748 5745 5744 5741 5738 5735 5732 5729 5726 5722 5719 5716 5712 5709 5706 5703 5699 5695
5698 5701 5705 5712 5717 5719 5722 5725 5727 5732 5739 5742 5742 5744 5742 5741 5743 5745 5746 5745 5743 5742 5740 5740 5739 5738 5736 5734 5731 5729 5726 5723 5719 5716 5714 5711 5707 5703 5700 5697 5694 5689 5685 5681
5683 5685 5693 5696 5702 5705 5710 5718 5721 5724 5728 5729 5730 5737 5736 5737 5734 5735 5735 5733 5733 5731 5730 5729 5728 5726 5724 5722 5719 5716 5714 5709 5706 5703 5701 5699 5695 5691 5688 5685 5680 5675 5670 5665
5674 5680 5685 5688 5698 5703 5703 5707 5712 5713 5714 5722 5723 5727 5727 5725 5726 5727 5725 5722 5722 5720 5719 5720 5716 5712 5711 5709 5706 5704 5701 5697 5693 5691 5688 5686 5682 5678 5675 5670 5666 5661 5654 5648
5663 5668 5673 5677 5684 5687 5692 5697 5700 5700 5708 5708 5720 5716 5723 5714 5717 5717 5713 5713 5711 5709 5708 5706 5702 5699 5699 5696 5694 5690 5687 5684 5680 5678 5675 5671 5667 5664 5661 5657 5650 5645 5640 5634
5652 5658 5663 5666 5670 5674 5680 5688 5689 5690 5697 5699 5704 5704 5711 5705 5705 5704 5702 5699 5698 5698 5698 5694 5691 5687 5685 5681 5678 5677 5671 5669 5665 5663 5660 5656 5653 5650 5647 5640 5634 5630 5624 5619
5642 5646 5650 5657 5660 5663 5665 5678 5677 5684 5686 5688 5688 5698 5698 5692 5690 5691 5689 5687 5687 5686 5683 5680 5676 5674 5671 5667 5663 5660 5657 5654 5651 5648 5645 5642 5639 5636 5631 5625 5619 5614 5609 5605
5633 5636 5641 5645 5644 5645 5665 5667 5664 5668 5674 5675 5674 5682 5684 5679 5678 5679 5675 5674 5675 5671 5669 5664 5660 5658 5655 5652 5649 5645 5642 5638 5635 5633 5631 5629 5625 5619 5614 5610 5605 5599 5594 5590
5620 5625 5624 5628 5632 5640 5645 5653 5653 5655 5662 5665 5662 5669 5670 5668 5663 5665 5661 5662 5657 5654 5651 5650 5645 5643 5641 5638 5634 5630 5626 5623 5620 5618 5616 5613 5608 5603 5599 5594 5589 5585 5580 5575
5607 5611 5613 5615 5618 5622 5641 5641 5640 5643 5644 5654 5651 5653 5655 5654 5646 5652 5648 5642 5644 5639 5635 5635 5631 5628 5625 5623 5619 5615 5611 5608 5606 5603 5601 5597 5592 5587 5583 5579 5575 5570 5566 5560
5595 5598 5600 5604 5606 5612 5623 5626 5630 5631 5640 5635 5638 5638 5638 5637 5634 5630 5634 5630 5627 5623 5620 5619 5615 5614 5612 5607 5603 5599 5596 5593 5590 5587 5582 5579 5575 5572 5568 5563 5559 5555 5550 5546
5585 5589 5591 5595 5596 5600 5614 5609 5619 5620 5614 5618 5621 5620 5621 5619 5617 5615 5615 5613 5611 5608 5606 5604 5601 5600 5597 5593 5590 5585 5582 5579 5574 5570 5566 5563 5560 5556 5551 5547 5543 5540 5536 5534
5567 5577 5580 5585 5588 5595 5601 5600 5601 5606 5599 5602 5603 5605 5604 5601 5602 5599 5599 5597 5594 5591 5589 5587 5585 5583 5580 5577 5573 5569 5566 5561 5558 5554 5551 5547 5543 5539 5535 5533 5529 5525 5524 5522
5558 5563 5563 5569 5576 5581 5583 5587 5581 5589 5585 5586 5587 5587 5588 5587 5586 5584 5582 5580 5578 5577 5574 5572 5569 5567 5563 5559 5554 5549 5550 5541 5538 5535 5533 5530 5527 5524 5522 5520 5516 5515 5514 5512
5541 5548 5557 5554 5558 5564 5567 5568 5568 5570 5571 5571 5572 5573 5574 5573 5572 5570 5567 5565 5564 5562 5559 5556 5553 5549 5544 5541 5536 5531 5531 5526 5523 5519 5517 5516 5514 5513 5511 5508 5506 5505 5504 5502
5528 5536 5542 5541 5546 5552 5553 5555 5556 5556 5556 5558 5558 5559 5560 5559 5557 5555 5553 5551 5548 5546 5544 5540 5535 5532 5526 5522 5519 5513 5511 5507 5506 5504 5502 5502 5502 5501 5499 5498 5497 5496 5496 5495
Wind_Speed
41 42 38 34 38 36 37 36 40 37 40 50 45 44 47 45 40 37 31 32 33 33 33 34 34 32 32 30 24 22 21 22 23 25 26 26 30 27 29 33 33 34 35 34
42 41 39 40 38 39 42 40 42 43 46 54 47 47 42 42 37 34 33 33 34 34 34 32 30 28 25 24 21 19 20 22 24 26 27 29 29 33 32 35 35 37 38 37
46 44 45 43 43 43 45 46 42 44 50 47 44 45 36 43 34 34 34 34 34 33 31 28 24 24 25 23 21 21 23 24 24 24 26 29 32 36 40 42 43 43 42 41
49 51 51 48 53 52 53 50 51 48 48 45 43 39 37 40 33 34 34 34 33 31 28 25 25 26 26 25 24 24 25 26 25 28 30 32 36 39 43 45 46 50 49 51
53 52 56 53 49 53 49 53 51 45 45 41 41 43 29 40 44 31 32 31 30 28 26 26 28 29 29 28 27 28 30 30 31 33 37 40 41 43 44 46 50 50 53 56
58 61 60 53 52 49 52 45 45 44 40 45 38 35 34 31 42 35 31 29 28 28 28 29 30 31 29 29 30 30 30 32 38 42 43 44 46 47 47 48 48 51 54 57
63 60 56 56 57 54 51 47 48 44 42 43 35 42 37 37 44 38 31 28 29 29 29 31 32 32 31 32 31 32 35 37 41 43 42 41 42 44 45 47 48 49 51 51
63 62 63 58 56 56 52 47 41 38 37 38 38 45 40 40 41 33 31 29 29 30 33 34 34 35 37 37 38 38 40 42 38 37 38 37 34 38 40 40 41 44 46 47
64 61 64 59 53 55 54 51 43 41 47 46 41 47 42 39 41 32 29 30 31 32 34 36 39 41 41 43 44 46 48 42 39 39 33 35 38 38 33 34 39 38 39 46
65 64 62 60 53 52 52 50 46 45 47 45 42 38 37 46 39 28 30 32 33 35 37 41 43 43 44 45 47 46 49 46 43 39 37 40 41 35 32 37 37 42 46 51
64 60 61 56 52 50 48 51 45 43 45 40 39 37 41 45 39 30 30 31 34 37 41 44 45 44 43 45 47 48 46 47 47 45 39 40 39 34 33 37 43 46 45 46
53 56 55 52 49 48 49 48 46 43 40 37 37 40 42 41 38 31 32 35 38 40 44 45 43 44 50 51 50 48 49 51 51 46 44 43 38 35 38 40 44 46 49 52
49 54 52 56 54 52 49 42 40 39 37 39 39 38 38 37 39 39 35 36 38 43 47 46 45 51 53 53 52 53 53 54 53 52 50 45 40 40 42 45 51 58 62 63
48 49 49 51 42 38 40 37 33 35 40 36 39 35 38 41 39 38 43 43 44 46 46 44 52 56 56 55 57 56 55 56 57 54 51 49 46 49 50 52 58 63 66 62
54 54 54 51 43 45 42 38 38 42 38 41 31 36 37 39 43 43 45 42 44 43 47 53 56 59 61 58 59 58 58 57 57 56 55 52 50 52 55 60 67 69 63 58
58 47 50 47 45 44 39 42 40 42 37 41 43 47 39 43 41 41 49 40 45 50 52 55 60 63 60 60 61 61 60 59 59 58 56 55 56 59 59 68 69 63 59 57
44 50 50 50 41 40 47 45 42 41 46 47 48 43 40 46 44 41 49 45 47 53 58 57 61 62 59 59 62 61 63 65 62 58 57 58 59 60 66 70 66 63 59 58
45 50 50 49 49 53 46 43 45 44 45 47 50 45 43 48 46 42 49 54 52 57 59 63 61 58 58 60 62 65 68 67 62 57 58 57 61 66 68 69 64 59 57 55
45 49 51 49 53 52 54 50 43 44 43 43 50 48 45 46 50 54 54 57 61 62 64 61 55 54 57 61 64 68 70 65 60 60 57 61 67 67 65 62 59 56 56 56
53 45 46 48 52 55 50 44 48 46 50 46 46 47 50 54 60 60 60 65 63 59 59 54 54 56 57 64 68 72 68 59 56 57 63 67 69 69 65 65 61 58 58 53
55 53 58 54 52 52 46 41 44 50 51 55 56 56 58 60 58 64 63 58 56 55 54 53 53 56 60 67 68 65 62 58 59 65 68 69 68 66 67 63 58 55 52 48
61 57 53 52 48 46 39 51 56 52 54 55 56 59 62 64 66 64 59 52 49 49 51 52 53 56 63 62 61 61 59 62 68 69 70 68 66 65 59 56 54 53 48 46
55 50 49 47 49 47 53 54 53 53 60 59 62 64 67 68 67 59 54 50 50 50 51 52 55 59 63 63 63 65 66 68 69 68 66 62 56 52 50 50 48 46 47 46
50 46 44 45 52 57 56 53 59 59 65 64 58 55 53 50 50 52 53 51 51 52 55 59 63 62 61 64 68 71 70 70 66 65 61 54 49 46 46 44 42 42 41 41
51 62 59 59 60 58 58 60 60 54 52 53 54 51 52 53 52 50 51 53 55 57 60 62 64 65 67 69 69 70 67 64 60 56 53 49 45 42 44 40 38 36 33 31
61 61 61 60 59 57 57 52 46 48 51 49 46 46 45 48 48 49 52 53 55 58 61 65 68 69 67 66 63 60 57 56 54 51 49 44 41 40 38 36 31 27 25 26
Wind_Direction
238 239 242 247 249 251 257 260 267 269 275 278 283 279 281 284 283 282 283 281 281 282 285 286 288 290 292 292 292 287 283 283 286 292 304 310 309 307 314 314 313 315 318 315
238 243 250 247 250 256 262 266 270 273 272 278 283 280 283 279 279 280 279 278 281 285 286 285 288 292 288 286 288 288 282 280 286 293 299 302 305 309 305 304 303 308 310 305
245 244 242 244 248 257 263 266 270 275 277 278 283 279 276 272 278 277 277 281 283 283 282 286 288 286 285 282 280 275 273 277 285 290 298 306 308 310 309 308 305 307 307 304
242 243 244 251 261 258 258 266 265 273 275 281 275 275 274 280 273 277 282 282 281 281 282 284 284 283 278 271 265 266 268 273 288 302 303 303 304 304 303 306 305 304 303 301
245 247 257 260 256 257 258 265 270 269 276 271 267 275 270 273 284 277 280 278 279 276 279 282 281 278 275 273 273 270 273 279 296 304 308 308 305 303 300 300 301 299 298 299
242 246 252 257 259 263 262 268 268 272 268 264 265 268 275 277 279 284 282 277 273 272 275 278 278 273 268 268 270 274 284 291 297 304 307 306 305 300 293 290 290 291 293 295
252 254 252 254 257 261 265 265 269 262 256 266 268 269 271 271 278 288 277 274 270 272 276 275 270 264 263 262 267 282 301 304 305 306 306 304 294 293 293 294 294 295 295 295
248 248 250 252 252 260 261 261 250 255 258 264 265 269 273 276 280 277 274 273 272 275 274 271 263 261 262 264 271 289 299 303 306 308 298 291 290 291 294 297 297 299 298 295
254 250 251 250 253 256 256 247 248 249 256 262 265 276 280 279 278 274 274 273 274 272 270 263 261 262 266 271 278 287 294 299 302 302 288 294 295 300 298 299 299 297 302 301
243 248 253 250 252 249 243 246 244 245 252 259 269 273 276 279 277 273 270 272 272 269 265 265 266 269 275 282 291 292 299 297 301 296 293 296 298 298 301 301 290 290 298 301
242 246 249 245 242 241 239 245 249 250 251 256 268 271 265 269 277 279 273 272 271 270 269 269 273 275 283 292 294 294 296 301 302 291 290 299 298 295 293 287 287 293 302 308
234 236 238 244 239 236 237 242 243 247 255 261 255 254 261 268 277 275 274 277 275 273 272 272 272 284 293 297 297 295 295 298 299 285 286 291 292 291 292 292 291 294 295 293
223 226 224 232 234 235 239 243 248 248 246 249 249 262 263 269 271 275 278 274 272 270 270 269 274 286 293 295 295 296 296 296 292 287 283 290 286 285 289 288 289 290 293 294
223 229 232 239 244 239 237 240 238 240 242 249 259 262 271 270 269 270 271 272 268 269 274 274 283 287 291 293 291 290 291 290 288 286 284 288 283 283 286 290 291 291 293 297
223 225 226 226 223 231 231 233 241 248 255 252 265 266 274 267 273 269 269 272 270 267 272 283 285 286 288 290 287 288 291 288 282 285 283 284 280 285 288 293 289 292 298 302
225 221 221 219 221 229 236 233 243 248 257 267 271 272 274 270 269 264 270 266 265 270 278 280 281 283 287 286 286 289 288 288 284 281 283 282 282 282 286 287 292 298 300 298
209 213 217 220 229 235 234 238 260 267 269 269 267 277 267 263 264 265 271 268 271 278 280 282 282 285 282 285 287 288 287 288 282 281 281 281 282 287 287 291 296 299 297 290
233 229 227 230 245 252 243 264 268 268 268 265 264 268 267 263 259 265 277 276 283 280 280 280 282 280 282 284 286 287 287 284 278 279 279 285 285 286 290 295 299 295 291 287
224 232 242 247 248 255 259 267 271 269 271 266 265 266 266 262 262 262 280 285 280 281 279 279 278 281 284 286 286 285 283 278 276 277 279 282 284 289 293 298 297 291 286 285
247 250 253 262 265 271 282 269 269 267 262 265 266 263 266 267 268 273 278 278 284 277 275 276 281 286 285 281 282 280 277 277 278 278 280 281 284 287 296 298 293 286 286 289
248 261 267 267 259 265 271 258 266 264 272 269 270 269 269 270 274 275 284 279 274 273 276 283 281 280 280 275 270 270 274 275 276 279 280 282 288 294 295 293 287 288 292 291
259 258 256 253 250 259 244 274 278 272 264 265 267 269 274 276 279 284 279 275 276 275 274 276 278 278 273 273 276 280 281 278 277 279 284 289 293 292 291 289 288 288 289 286
250 253 255 255 262 259 263 268 260 260 268 271 273 274 275 278 279 274 274 280 282 282 282 282 281 277 274 278 281 281 279 277 280 286 291 292 291 289 289 288 284 285 285 285
252 239 236 244 262 269 268 264 265 268 271 274 273 272 273 274 273 273 277 282 284 284 283 283 282 281 279 282 282 282 283 289 290 290 290 289 287 288 287 284 285 286 285 287
241 245 260 265 264 265 268 269 270 270 267 267 269 270 269 272 280 283 282 281 281 282 282 281 280 278 278 282 285 286 288 288 287 286 286 285 285 283 281 281 282 285 288 287
260 264 263 259 257 262 265 263 267 268 268 268 267 273 276 279 280 281 280 280 280 279 277 276 277 282 288 289 289 288 288 286 283 280 278 277 276 273 274 276 279 280 280 283